Flag for Congo Weather past 2 weeks in Impfondo, Congo

Now
72 °F

Passing clouds.


Feels Like: 65 °F
Forecast: 74 / 88 °F
Wind: No wind

Location: Bangui Airport

Current Time: May 29, 2015 at 12:30:22 AM

Latest Report: May 28, 2015 at 11:00 PM


Visibility: 4 mi

Pressure: 29.86 "Hg

Humidity: 100%

Dew point: 72 °F

Location of ImpfondoLocation

Historic Weather in Impfondo — Graph

°F

Impfondo temperature yesterday

Maximum temperature yesterday: 90 °F (at 10:00 AM)
Minimum temperature yesterday: 72 °F (at 1:00 PM)
Average temperature yesterday: 77 °F

Past Weeks' High & Low Weather Summary

 TemperatureHumidityPressure
High93 °F (May 14, 1:00 PM)100% (May 15, 11:00 PM)30.01 "Hg (May 15, 11:00 PM)
Low72 °F (May 15, 11:00 PM)53% (May 20, 2:00 PM)29.74 "Hg (May 28, 4:00 PM)
Average80 °F84%29.89 "Hg
* Reported May 14 1:00 PM — May 28 10:00 PM, Impfondo, Weather by CustomWeather, © 2015

Note: Actual official high and low records may vary slightly from our data, if they occured in-between our weather recording intervals... More about our weather records

Advertising

Impfondo weather history for previous 24 hours

 ConditionsComfort  
Time TempWeatherWind HumidityBarometerVisibility
10:00 PM
Thu, May 28
72 °FPassing clouds.2 mph100%29.89 "HgN/A
9:00 PM73 °FPassing clouds.1 mph94%29.86 "HgN/A
8:00 PM73 °FPassing clouds.1 mph94%29.86 "HgN/A
7:00 PM73 °FPassing clouds.2 mph94%29.83 "HgN/A
6:00 PM75 °FPassing clouds.1 mph94%29.80 "HgN/A
5:00 PM77 °FBroken clouds.2 mph89%29.77 "HgN/A
4:00 PM77 °FScattered clouds.5 mph89%29.74 "HgN/A
3:00 PM75 °FBroken clouds.No wind94%29.77 "HgN/A
2:00 PM73 °FThunderstorms. Low clouds.1 mph94%29.86 "Hg5 mi
1:00 PM72 °FThunderstorms. Low clouds.2 mph100%29.89 "Hg5 mi
10:00 AM90 °FScattered clouds.2 mph67%29.92 "HgN/A
9:00 AM86 °FPassing clouds.2 mph75%29.92 "Hg4 mi
8:00 AM81 °FClear.No wind89%29.92 "Hg4 mi
7:00 AM77 °FClear.2 mph100%29.92 "Hg4 mi
6:00 AM75 °FClear.No wind100%29.89 "Hg4 mi
5:00 AM75 °FClear.No wind100%29.89 "Hg10 mi
4:00 AM77 °FClear.2 mph94%29.86 "Hg10 mi
3:00 AM77 °FClear.No wind100%29.86 "Hg10 mi
2:00 AM77 °FClear.No wind100%29.89 "Hg10 mi
1:00 AM77 °FClear.No wind94%29.89 "Hg10 mi
12:00 AM77 °FClear.No wind100%29.89 "Hg10 mi
Weather by CustomWeather, © 2015

See weather overviewHow to use our weather pages